When you browse on this site, cookies collect data to enhance your experience and personalize the content and advertising you see.
Visit our Privacy Policy to learn more. By continuing to use the site, you agree to this use of cookies and data.
  • In Hungary
  • List of Countries
  • For 7 days
  • Water Temperature
  • Satellite Maps
  • Weather Map
  • News
  • Weather Widgets
  • user-avatar
    Login

    Hourly Weather Kovel

    Today, 26 April, Friday

    Time Temperature Precipitation Wind Pressure Humidity
    00:00 +13°C° 0.9 mm 4 mps 746 mmHg 87%
    01:00 +13°C° 0.9 mm 3 mps 746 mmHg 90%
    02:00 +12°C° 0.9 mm 3 mps 746 mmHg 93%
    03:00 +12°C° 0.2 mm 3 mps 746 mmHg 93%
    04:00 +12°C° 0.2 mm 3 mps 746 mmHg 94%
    05:00 +11°C° 0.2 mm 3 mps 745 mmHg 94%
    06:00 +13°C° 0 mm 3 mps 745 mmHg 90%
    07:00 +14°C° 0 mm 3 mps 745 mmHg 85%
    08:00 +17°C° 0 mm 4 mps 745 mmHg 81%
    09:00 +19°C° 0 mm 4 mps 745 mmHg 75%
    10:00 +21°C° 0 mm 4 mps 745 mmHg 69%
    11:00 +22°C° 0 mm 4 mps 745 mmHg 63%
    12:00 +23°C° 0 mm 4 mps 744 mmHg 58%
    13:00 +25°C° 0 mm 5 mps 744 mmHg 54%
    14:00 +26°C° 0 mm 5 mps 744 mmHg 49%
    15:00 +26°C° 0 mm 4 mps 743 mmHg 53%
    16:00 +25°C° 0 mm 4 mps 743 mmHg 56%
    17:00 +24°C° 0 mm 3 mps 743 mmHg 59%
    18:00 +22°C° 0.1 mm 3 mps 742 mmHg 65%
    19:00 +20°C° 0.1 mm 3 mps 742 mmHg 70%
    20:00 +19°C° 0.1 mm 3 mps 742 mmHg 76%
    21:00 +18°C° 2.1 mm 3 mps 742 mmHg 80%
    22:00 +17°C° 2.1 mm 3 mps 742 mmHg 84%
    23:00 +16°C° 2.1 mm 3 mps 742 mmHg 89%

    Tomorrow, 27 April, Saturday

    Time Temperature Precipitation Wind Pressure Humidity
    00:00 +16°C° 0.5 mm 3 mps 742 mmHg 89%
    01:00 +16°C° 0.5 mm 3 mps 742 mmHg 89%
    02:00 +16°C° 0.5 mm 3 mps 742 mmHg 90%
    03:00 +14°C° 0.8 mm 3 mps 741 mmHg 90%
    04:00 +14°C° 0.8 mm 3 mps 741 mmHg 91%
    05:00 +13°C° 0.8 mm 3 mps 741 mmHg 92%
    06:00 +16°C° 0.5 mm 3 mps 741 mmHg 88%
    07:00 +17°C° 0.5 mm 3 mps 741 mmHg 84%
    08:00 +18°C° 0.5 mm 3 mps 741 mmHg 80%
    09:00 +20°C° 0 mm 3 mps 741 mmHg 73%
    10:00 +22°C° 0 mm 3 mps 741 mmHg 66%
    11:00 +25°C° 0 mm 3 mps 741 mmHg 59%
    12:00 +25°C° 0.5 mm 3 mps 741 mmHg 57%
    13:00 +26°C° 0.5 mm 4 mps 741 mmHg 56%
    14:00 +26°C° 0.5 mm 4 mps 741 mmHg 54%
    15:00 +26°C° 0.1 mm 4 mps 741 mmHg 55%
    16:00 +25°C° 0.1 mm 3 mps 740 mmHg 56%
    17:00 +25°C° 0.1 mm 3 mps 740 mmHg 57%
    18:00 +22°C° 0.2 mm 3 mps 740 mmHg 66%
    19:00 +20°C° 0.2 mm 3 mps 740 mmHg 74%
    20:00 +18°C° 0.2 mm 3 mps 741 mmHg 83%
    21:00 +17°C° 0.1 mm 3 mps 741 mmHg 86%
    22:00 +16°C° 0.1 mm 3 mps 741 mmHg 89%
    23:00 +14°C° 0.1 mm 3 mps 741 mmHg 92%

    Day after tomorrow, 28 April, Sunday

    Time Temperature Precipitation Wind Pressure Humidity
    00:00 +14°C° 0.6 mm 3 mps 741 mmHg 92%
    01:00 +13°C° 0.6 mm 3 mps 741 mmHg 92%
    02:00 +13°C° 0.6 mm 3 mps 741 mmHg 91%
    03:00 +12°C° 0.1 mm 3 mps 741 mmHg 92%
    04:00 +12°C° 0.1 mm 3 mps 741 mmHg 92%
    05:00 +11°C° 0.1 mm 3 mps 741 mmHg 93%
    06:00 +12°C° 0 mm 3 mps 741 mmHg 90%
    07:00 +13°C° 0 mm 3 mps 741 mmHg 88%
    08:00 +13°C° 0 mm 4 mps 742 mmHg 86%
    09:00 +14°C° 0 mm 3 mps 742 mmHg 84%
    10:00 +14°C° 0 mm 3 mps 742 mmHg 82%
    11:00 +16°C° 0 mm 3 mps 742 mmHg 81%
    12:00 +16°C° 0 mm 3 mps 742 mmHg 79%
    13:00 +17°C° 0 mm 3 mps 742 mmHg 76%
    14:00 +18°C° 0 mm 4 mps 742 mmHg 74%
    15:00 +18°C° 0 mm 4 mps 741 mmHg 74%
    16:00 +18°C° 0 mm 3 mps 741 mmHg 75%
    17:00 +18°C° 0 mm 3 mps 741 mmHg 75%
    18:00 +17°C° 0 mm 3 mps 741 mmHg 78%
    19:00 +17°C° 0 mm 3 mps 741 mmHg 80%
    20:00 +16°C° 0 mm 2 mps 742 mmHg 83%
    21:00 +14°C° 0.1 mm 3 mps 742 mmHg 85%
    22:00 +14°C° 0.1 mm 3 mps 742 mmHg 87%
    23:00 +13°C° 0.1 mm 4 mps 742 mmHg 90%

    29 April, Monday

    Time Temperature Precipitation Wind Pressure Humidity
    00:00 +13°C° 0.8 mm 3 mps 742 mmHg 92%
    01:00 +13°C° 0.8 mm 3 mps 742 mmHg 94%
    02:00 +14°C° 0.8 mm 2 mps 742 mmHg 97%
    03:00 +13°C° 1.5 mm 3 mps 742 mmHg 96%
    04:00 +13°C° 1.5 mm 3 mps 742 mmHg 96%
    05:00 +13°C° 1.5 mm 4 mps 741 mmHg 95%
    06:00 +13°C° 1.4 mm 4 mps 742 mmHg 95%
    07:00 +13°C° 1.4 mm 5 mps 742 mmHg 94%
    08:00 +11°C° 1.4 mm 6 mps 742 mmHg 93%
    09:00 +11°C° 2.7 mm 6 mps 742 mmHg 93%
    10:00 +10°C° 2.7 mm 6 mps 742 mmHg 92%
    11:00 +10°C° 2.7 mm 7 mps 743 mmHg 92%
    12:00 +10°C° 1.7 mm 7 mps 743 mmHg 91%
    13:00 +10°C° 1.7 mm 7 mps 743 mmHg 91%
    14:00 +9°C° 1.7 mm 7 mps 743 mmHg 90%
    15:00 +9°C° 0.6 mm 7 mps 743 mmHg 90%
    16:00 +9°C° 0.6 mm 7 mps 743 mmHg 89%
    17:00 +9°C° 0.6 mm 7 mps 742 mmHg 89%
    18:00 +8°C° 0.5 mm 6 mps 743 mmHg 89%
    19:00 +8°C° 0.5 mm 6 mps 743 mmHg 90%
    20:00 +8°C° 0.5 mm 6 mps 743 mmHg 90%
    21:00 +8°C° 0.7 mm 6 mps 743 mmHg 91%
    22:00 +8°C° 0.7 mm 6 mps 743 mmHg 91%
    23:00 +8°C° 0.7 mm 5 mps 743 mmHg 92%

    30 April, Tuesday

    Time Temperature Precipitation Wind Pressure Humidity
    00:00 +8°C° 0.5 mm 5 mps 743 mmHg 92%
    01:00 +7°C° 0.5 mm 5 mps 742 mmHg 92%
    02:00 +7°C° 0.5 mm 5 mps 742 mmHg 92%
    03:00 +7°C° 0.4 mm 5 mps 742 mmHg 92%
    04:00 +7°C° 0.4 mm 5 mps 742 mmHg 91%
    05:00 +7°C° 0.4 mm 5 mps 742 mmHg 91%
    06:00 +6°C° 0.8 mm 5 mps 742 mmHg 90%
    07:00 +5°C° 0.8 mm 6 mps 742 mmHg 89%
    08:00 +5°C° 0.8 mm 6 mps 742 mmHg 89%
    09:00 +5°C° 0.9 mm 6 mps 742 mmHg 87%
    10:00 +7°C° 0.9 mm 6 mps 742 mmHg 86%
    11:00 +7°C° 0.9 mm 6 mps 742 mmHg 85%
    12:00 +7°C° 0.3 mm 5 mps 742 mmHg 83%
    13:00 +8°C° 0.3 mm 5 mps 742 mmHg 81%
    14:00 +9°C° 0.3 mm 5 mps 742 mmHg 79%
    15:00 +9°C° 0.1 mm 5 mps 742 mmHg 77%
    16:00 +11°C° 0.1 mm 4 mps 742 mmHg 74%
    17:00 +11°C° 0.1 mm 4 mps 742 mmHg 72%
    18:00 +10°C° 0 mm 3 mps 742 mmHg 75%
    19:00 +9°C° 0 mm 2 mps 742 mmHg 78%
    20:00 +9°C° 0 mm 1 mps 742 mmHg 81%
    21:00 +8°C° 0 mm 2 mps 742 mmHg 81%
    22:00 +7°C° 0 mm 2 mps 742 mmHg 80%
    23:00 +6°C° 0 mm 2 mps 742 mmHg 80%

    1 May, Wednesday

    Time Temperature Precipitation Wind Pressure Humidity
    00:00 +6°C° 0 mm 2 mps 742 mmHg 82%
    01:00 +5°C° 0 mm 2 mps 742 mmHg 83%
    02:00 +5°C° 0 mm 2 mps 742 mmHg 84%
    03:00 +5°C° 0 mm 2 mps 742 mmHg 86%
    04:00 +4°C° 0 mm 2 mps 742 mmHg 87%
    05:00 +4°C° 0 mm 2 mps 742 mmHg 89%
    06:00 +6°C° 0 mm 2 mps 742 mmHg 84%
    07:00 +7°C° 0 mm 2 mps 742 mmHg 79%
    08:00 +9°C° 0 mm 2 mps 742 mmHg 74%
    09:00 +10°C° 0.1 mm 2 mps 742 mmHg 67%
    10:00 +12°C° 0.1 mm 3 mps 742 mmHg 60%
    11:00 +13°C° 0.1 mm 3 mps 742 mmHg 54%
    12:00 +13°C° 0.1 mm 3 mps 741 mmHg 53%
    13:00 +13°C° 0.1 mm 3 mps 741 mmHg 53%
    14:00 +13°C° 0.1 mm 3 mps 741 mmHg 53%
    15:00 +13°C° 0.1 mm 3 mps 741 mmHg 53%
    16:00 +13°C° 0.1 mm 3 mps 740 mmHg 53%
    17:00 +13°C° 0.1 mm 3 mps 740 mmHg 53%
    18:00 +12°C° 0.1 mm 2 mps 740 mmHg 59%
    19:00 +10°C° 0.1 mm 2 mps 740 mmHg 64%
    20:00 +9°C° 0.1 mm 1 mps 740 mmHg 69%
    21:00 +9°C° 0 mm 1 mps 740 mmHg 70%
    22:00 +8°C° 0 mm 1 mps 739 mmHg 71%
    23:00 +6°C° 0 mm 0 mps 739 mmHg 71%
    Show more